[[{"header":{"parameterUnit":"m.s-1","parameterCategory":2,"la1":30.2991,"la2":30.254,"lo1":-89.0895,"lo2":-89.0444,"dy":0.0017,"dx":0.0017,"nx":28,"ny":28,"refTime":"2024-05-12T03:00:00:Z","depth":"0","parameterNumber":2,"parameterNumberName":"U-component_of_CURRENTS"},"data":[0,0,0,0,0,0,0,0,0,0,0,0,0,0,0,0,0,0,0,0,0,0,0,0,0,0,0,0,0,0,0,0,0,0,0,0,0,0,0,0,0,0,0,0,0,0,0,0,0,0,0,0,0,0,0,0,0,0,0.0009,0.0009,0,-0.0012,-0.0013,-0.0013,0.0004,0.0005,0.0005,0.0006,0.0024,0.0024,0.0024,0,0,0,0,0,0,0,0,0,0,0,0,0,0.0059,0.0058,0.0009,0.0009,0.0008,-0.0012,-0.0013,-0.0013,0.0004,0.0005,0.0006,0.0006,0.0024,0.0024,0.0024,0,0,0,0,0,0,0,0,0,0,0,0,0,0.0038,0.0058,0.0009,0.0014,0.0015,-0.0012,-0.0013,-0.0013,0.0004,0.0005,0.0006,0.0007,0.0024,0.0024,0.0024,0.0001,0,0,0.0023,0.0023,0,0,0,0,0,0,0,0,0.0039,0.0036,0.0014,0.0014,0.0014,-0.0,0.0012,-0.0006,0.0003,0.0008,0.0006,0.0007,0.0019,0.0019,0.0012,0.0002,0.0002,0.0023,0.0023,0.0023,0.0023,0,0,0,0,0,0,0,0.004,0.0037,0.0001,0.0013,0.0014,0.0016,0.0014,0.0008,0.0008,0.0008,0.0009,0.0006,0.0019,0.0012,0.0013,0.0003,0.0023,0.0023,0.0023,0.0022,0.0011,0.0011,0,0,0,0,0,0,0.0042,0.0038,0.0001,0.0,0.0029,0.0014,0.0012,0.0003,0.0008,0.0009,0.0005,0.0007,0.0012,0.0013,0.0014,0.0022,0.0023,0.0022,0.0022,0.0011,0.0011,0.0011,0,0,0,0,0,0,0.0043,0.0038,0.0002,0.0019,0.0015,0.0012,0.0002,0.0002,0.0002,0.0005,0.0008,0.0006,0.0013,0.0014,0.0014,0.0022,0.0022,0.0022,0.0011,0.0011,0.0011,0.0016,0,0,0,0,0,0,0.0044,0.0038,0.0034,0.0019,0.0014,-0.0009,0.0001,0.0001,-0.0002,0.0001,0.0006,0.0009,0.0014,0.0015,0.0014,0.0021,0.0022,0.0011,0.0011,0.0011,0.0016,0.0016,0.0016,0,0,0,0,0,0.0046,0.0034,0.0034,0.003,0.0007,-0.0009,-0.0012,-0.001,-0.0002,-0.0005,0.0001,0.0009,0.0013,0.0014,0.0013,0.0021,0.0011,0.0011,0.0011,0.0016,0.0016,0.0016,0,0,0,0,0,0,0.0053,0.0033,0.0034,0.0017,0.0008,-0.0006,-0.001,-0.001,-0.001,-0.0005,0.0002,0.0004,0.0007,0.0008,0.001,0.0016,0.0015,0.0015,0.002,0.0019,0.0019,0.0037,0.0022,0,0,0,0,0,0.0052,0.0039,0.0024,0.0012,0.0007,-0.0001,-0.0007,-0.0007,-0.0011,-0.001,-0.0006,-0.0001,0.0002,0.0007,0.0006,0.0006,0.0041,0.0011,0.0011,0.0011,0.0024,0.0067,0.0073,0.001,0.001,0.001,0,0,0.005,0.0039,0.0032,0.0013,0.0006,-0.0002,-0.0002,-0.0011,-0.0011,-0.0009,-0.0006,-0.0005,0.0,0.0003,0.0005,0.0008,0.0051,0.0011,0.0011,0.0024,0.0068,0.0074,0.008,0.0009,0.0009,0.0009,0,0,0.0044,0.0033,0.0023,0.0015,0.0004,-0.0002,-0.0004,-0.0016,-0.0013,-0.0018,-0.001,-0.0001,-0.0007,0.0008,0.0013,0.0011,0.0046,0.0005,0.0024,0.0065,0.0071,0.0077,0.0151,0.0164,0.0009,0.0009,0.0009,0,0.0047,0.0032,0.0019,0.001,0.0006,-0.0,-0.0006,-0.0009,-0.0018,-0.001,-0.0014,-0.0001,0.0001,0.0023,0.0023,0.0014,0.0051,0.0025,0.0068,0.0074,0.008,0.0154,0.0168,0.001,0.001,0.001,0.001,0,0.0035,0.0027,0.0021,0.001,0.0003,-0.0005,-0.0011,-0.0011,-0.0009,-0.0006,0.001,0.0013,0.0029,0.0025,0.0023,0.0062,0.0082,0.006,0.0072,0.0087,0.0164,0.0178,0.001,0.001,0.001,0.001,0,0,0.0037,0.0017,0.0017,0.0019,0.0004,-0.0001,-0.0001,0.0003,0.002,0.0015,0.0045,0.0044,0.0055,0.0062,0.0064,0.0097,0.0172,0.0097,0.0099,0.018,0.0294,0.043,0.0459,0.0156,0.0158,0.0159,0.034,0,0.0038,0.0029,0.0015,0.0014,0.0012,0.0006,0.0011,0.0016,0.0025,0.0051,0.0065,0.009,0.0067,0.0084,0.011,0.0153,0.0206,0.0128,0.026,0.0265,0.0391,0.0478,0.0545,0.0721,0.0354,0.0356,0.0358,0,0.0035,0.0032,0.003,0.003,0.0029,0.003,0.0049,0.0051,0.0081,0.0091,0.0115,0.0129,0.018,0.0154,0.0255,0.0206,0.0257,0.0291,0.0298,0.0435,0.0428,0.0642,0.0761,0.0718,0.038,0.0378,0.0376,0,0.0054,0.0043,0.0047,0.0044,0.0042,0.0051,0.0054,0.0072,0.0097,0.0129,0.0177,0.0201,0.0272,0.0296,0.0383,0.0316,0.052,0.0433,0.0612,0.0622,0.0714,0.073,0.0818,0.0522,0.0522,0.0521,0.0521,0,0.0062,0.0066,0.0061,0.0067,0.0088,0.0074,0.0106,0.0113,0.0151,0.0225,0.0212,0.031,0.0315,0.0428,0.0437,0.0619,0.0575,0.0661,0.0691,0.0721,0.0735,0.0728,0.0658,0.0528,0.0526,0.0525,0.0524,0,0.0086,0.0076,0.0088,0.0093,0.0099,0.0118,0.0148,0.0183,0.0212,0.0316,0.0342,0.0437,0.0605,0.0647,0.0752,0.0761,0.0846,0.0931,0.0994,0.103,0.1113,0.1041,0.1021,0.101,0.113,0.1134,0.1138,0,0.0096,0.0105,0.012,0.0142,0.015,0.0174,0.0205,0.0215,0.0268,0.0425,0.0503,0.0692,0.0862,0.1085,0.1145,0.1246,0.1091,0.1342,0.1217,0.1184,0.1123,0.0893,0.0865,0.134,0.1345,0.1349,0.1353,0,0.0131,0.0139,0.0154,0.0199,0.0232,0.027,0.032,0.037,0.0435,0.0548,0.0763,0.0913,0.119,0.1371,0.1523,0.1549,0.1264,0.1437,0.1371,0.13,0.1084,0.1068,0.1162,0.1391,0.1387,0.1384,0.1382,0.1381,0.0168,0.0191,0.0218,0.0266,0.0308,0.0383,0.0436,0.0519,0.0637,0.0836,0.0959,0.1213,0.1472,0.1716,0.1727,0.1783,0.1593,0.1712,0.1634,0.1406,0.1375,0.1592,0.1867,0.1866,0.1865,0.1864,0.1864,0,0.022,0.0248,0.029,0.0353,0.0425,0.0432,0.0532,0.0604,0.0777,0.099,0.1192,0.1535,0.1752,0.1874,0.2018,0.1965,0.1749,0.1885,0.1549,0.1519,0.173,0.1723,0.2019,0.2019,0.2019,0.2019,0.2019,0.2019,0.0251,0.0302,0.0326,0.0453,0.0508,0.061,0.0678,0.0794,0.0939,0.1233,0.1453,0.1615,0.1828,0.2001,0.2017,0.1967,0.1711,0.1654,0.1548,0.1684,0.1657,0.1632,0.1609,0.1876,0.1876,0.1287,0.1283,0.128]},{"header":{"parameterUnit":"m.s-1","parameterCategory":2,"la1":30.2991,"la2":30.254,"lo1":-89.0895,"lo2":-89.0444,"dy":0.0017,"dx":0.0017,"nx":28,"ny":28,"refTime":"2024-05-12T03:00:00:Z","depth":"0","parameterNumber":3,"parameterNumberName":"V-component_of_CURRENTS"},"data":[0,0,0,0,0,0,0,0,0,0,0,0,0,0,0,0,0,0,0,0,0,0,0,0,0,0,0,0,0,0,0,0,0,0,0,0,0,0,0,0,0,0,0,0,0,0,0,0,0,0,0,0,0,0,0,0,0,0,0.0068,0.0068,0,0.0069,0.0069,0.0069,0.0074,0.0074,0.0074,0.0074,0.0097,0.0097,0.0098,0,0,0,0,0,0,0,0,0,0,0,0,0,0.0082,0.0081,0.0068,0.0068,0.0068,0.0069,0.0069,0.0069,0.0074,0.0074,0.0074,0.0074,0.0096,0.0097,0.0098,0,0,0,0,0,0,0,0,0,0,0,0,0,0.0079,0.0081,0.0068,0.007,0.007,0.0069,0.0069,0.0069,0.0074,0.0074,0.0074,0.0074,0.0096,0.0097,0.0098,0.01,0,0,0.01,0.01,0,0,0,0,0,0,0,0,0.0079,0.0078,0.007,0.007,0.007,0.0072,0.0083,0.0081,0.0074,0.0073,0.0074,0.0074,0.009,0.0091,0.0091,0.0101,0.0102,0.01,0.0101,0.0101,0.0101,0,0,0,0,0,0,0,0.0079,0.0078,0.0068,0.007,0.007,0.0076,0.0075,0.0082,0.0081,0.0073,0.0073,0.0073,0.009,0.009,0.0092,0.0102,0.01,0.0101,0.0101,0.0102,0.0121,0.0121,0,0,0,0,0,0,0.0078,0.0078,0.0068,0.0068,0.0075,0.0075,0.0075,0.0071,0.008,0.0082,0.0073,0.0073,0.0089,0.0091,0.0093,0.0097,0.0101,0.0102,0.0102,0.0121,0.0121,0.0121,0,0,0,0,0,0,0.0078,0.0077,0.0068,0.0074,0.0073,0.0075,0.0071,0.0071,0.0071,0.008,0.0082,0.0072,0.0089,0.0091,0.0099,0.0098,0.0102,0.0103,0.0121,0.0121,0.0121,0.0106,0,0,0,0,0,0,0.0078,0.0077,0.0073,0.0073,0.0073,0.0066,0.007,0.0071,0.0071,0.0071,0.008,0.0083,0.0089,0.0098,0.01,0.0099,0.0103,0.0121,0.0121,0.0121,0.0107,0.0106,0.0105,0,0,0,0,0,0.0079,0.0072,0.0073,0.0071,0.0067,0.0066,0.0066,0.0068,0.007,0.0069,0.0077,0.0082,0.01,0.0099,0.0101,0.0101,0.0121,0.0121,0.0121,0.0107,0.0106,0.0105,0,0,0,0,0,0,0.0076,0.0072,0.0073,0.0065,0.0065,0.0067,0.0065,0.0067,0.0071,0.0073,0.0083,0.0085,0.009,0.0099,0.0097,0.0107,0.0112,0.0112,0.01,0.0099,0.0098,0.01,0.0104,0,0,0,0,0,0.0074,0.0067,0.0067,0.0061,0.0061,0.0063,0.0062,0.0064,0.0068,0.0069,0.0076,0.0085,0.0092,0.0099,0.0104,0.0111,0.0128,0.0113,0.0112,0.0112,0.0115,0.0138,0.0139,0.0122,0.0122,0.0122,0,0,0.007,0.0068,0.0064,0.006,0.006,0.0058,0.0063,0.0061,0.006,0.0072,0.0073,0.008,0.0093,0.0098,0.0102,0.0106,0.0126,0.0112,0.0111,0.0115,0.0138,0.014,0.0142,0.0122,0.0122,0.0122,0,0,0.0062,0.0059,0.0051,0.0051,0.0051,0.0053,0.0052,0.0053,0.0054,0.0057,0.0065,0.0074,0.0083,0.0093,0.01,0.0099,0.0118,0.0101,0.0102,0.0124,0.0126,0.0127,0.0152,0.0156,0.0104,0.0104,0.0104,0,0.0059,0.0048,0.005,0.0046,0.0045,0.005,0.0045,0.0048,0.0051,0.0055,0.0055,0.0073,0.0081,0.0094,0.0094,0.0097,0.0116,0.0103,0.0123,0.0125,0.0127,0.0152,0.0156,0.0103,0.0104,0.0104,0.0104,0,0.0047,0.0039,0.0035,0.0032,0.0032,0.0028,0.0033,0.0035,0.0038,0.0042,0.0052,0.0063,0.0078,0.0079,0.0087,0.0104,0.0115,0.0116,0.0125,0.0128,0.0154,0.0159,0.0102,0.0103,0.0103,0.0103,0,0,0.0041,0.0028,0.0027,0.0021,0.0024,0.0021,0.0024,0.0028,0.0034,0.0038,0.005,0.0058,0.0069,0.0078,0.0089,0.0107,0.0135,0.0119,0.012,0.0142,0.019,0.0203,0.021,0.0142,0.0143,0.0143,0.0203,0,0.0031,0.0015,0.0014,0.0003,-0.0004,0.0005,0.0008,0.0015,0.0025,0.0039,0.0054,0.0071,0.0068,0.0083,0.0097,0.0131,0.0148,0.0119,0.0185,0.0187,0.0197,0.0216,0.0231,0.0287,0.0208,0.0209,0.0209,0,0.002,0.001,-0.0006,-0.0013,-0.0014,-0.0017,-0.0007,-0.0003,0.0022,0.0035,0.0055,0.0075,0.0106,0.0102,0.0155,0.0139,0.0162,0.0182,0.0185,0.0207,0.0209,0.0271,0.0299,0.0245,0.0217,0.0217,0.0216,0,0.0012,-0.0004,-0.002,-0.0022,-0.0026,-0.0028,-0.0025,-0.0005,0.0018,0.0041,0.0083,0.0094,0.0145,0.0154,0.0203,0.0183,0.0265,0.0244,0.0273,0.0274,0.0306,0.0309,0.0289,0.0275,0.0275,0.0275,0.0275,0,0.0001,-0.0011,-0.0027,-0.0035,-0.0044,-0.004,-0.0033,-0.0023,0.0021,0.0089,0.0087,0.0167,0.0166,0.022,0.0219,0.0276,0.0282,0.0282,0.0293,0.0301,0.0302,0.0271,0.0236,0.0277,0.0277,0.0276,0.0276,0,-0.0004,-0.0018,-0.0034,-0.0046,-0.005,-0.0054,-0.0027,-0.0002,0.0038,0.0137,0.0162,0.0242,0.0319,0.0311,0.0354,0.0334,0.0349,0.037,0.0379,0.039,0.034,0.0304,0.0314,0.0361,0.0399,0.04,0.0401,0,-0.0008,-0.002,-0.0041,-0.0043,-0.0049,-0.0051,-0.0033,-0.0003,0.0064,0.0217,0.0295,0.0385,0.0499,0.0534,0.0479,0.0459,0.042,0.0454,0.0408,0.0347,0.0316,0.0282,0.0319,0.0447,0.0448,0.0449,0.0449,0,-0.0011,-0.0021,-0.0032,-0.0031,-0.0025,-0.0006,0.0043,0.011,0.0211,0.0333,0.054,0.0638,0.0668,0.0681,0.0608,0.0571,0.0429,0.0469,0.0409,0.0356,0.0317,0.0365,0.0394,0.0456,0.0456,0.0455,0.0455,0.0454,-0.0006,-0.0011,-0.0015,-0.0008,0.001,0.0088,0.0156,0.0268,0.0422,0.0683,0.0741,0.0967,0.0893,0.0802,0.0682,0.0491,0.0505,0.0451,0.0417,0.039,0.0419,0.0461,0.0529,0.0529,0.0529,0.0529,0.0528,0,0.001,0.0014,0.0018,0.0053,0.0116,0.0113,0.0252,0.0384,0.0631,0.0865,0.1072,0.1264,0.1112,0.093,0.0646,0.0481,0.0424,0.0397,0.0341,0.039,0.0431,0.0415,0.0458,0.0458,0.0458,0.0458,0.0458,0.0458,0.0021,0.0036,0.0046,0.0155,0.0201,0.0337,0.0446,0.066,0.0872,0.1264,0.1511,0.1661,0.1606,0.0915,0.0518,0.0417,0.0341,0.027,0.0288,0.0269,0.027,0.0272,0.0247,0.0255,0.0254,0.0281,0.0281,0.0281]}],[{"header":{"parameterUnit":"m.s-1","parameterCategory":2,"la1":30.2991,"la2":30.254,"lo1":-89.0895,"lo2":-89.0444,"dy":0.0017,"dx":0.0017,"nx":28,"ny":28,"refTime":"2024-05-12T03:00:00:Z","depth":"2","parameterNumber":2,"parameterNumberName":"U-component_of_CURRENTS"},"data":[0,0,0,0,0,0,0,0,0,0,0,0,0,0,0,0,0,0,0,0,0,0,0,0,0,0,0,0,0,0,0,0,0,0,0,0,0,0,0,0,0,0,0,0,0,0,0,0,0,0,0,0,0,0,0,0,0,0,0.0007,0.0007,0,-0.0013,-0.0013,-0.0014,0.0003,0.0004,0.0004,0.0005,0.0023,0.0023,0.0023,0,0,0,0,0,0,0,0,0,0,0,0,0,0.0054,0.0053,0.0007,0.0007,0.0006,-0.0013,-0.0013,-0.0014,0.0003,0.0004,0.0005,0.0005,0.0023,0.0023,0.0023,0,0,0,0,0,0,0,0,0,0,0,0,0,0.0034,0.0053,0.0007,0.0012,0.0013,-0.0013,-0.0013,-0.0014,0.0003,0.0004,0.0005,0.0006,0.0023,0.0023,0.0023,0.0,0,0,0.0022,0.0022,0,0,0,0,0,0,0,0,0.0035,0.0032,0.0012,0.0012,0.0012,-0.0002,0.001,-0.0007,0.0002,0.0006,0.0005,0.0006,0.0017,0.0018,0.0011,0.0001,0.0002,0.0022,0.0022,0.0021,0.0021,0,0,0,0,0,0,0,0.0036,0.0033,-0.0001,0.0011,0.0012,0.0014,0.0012,0.0006,0.0007,0.0006,0.0007,0.0005,0.0018,0.0011,0.0012,0.0002,0.0022,0.0021,0.0021,0.0021,0.0009,0.0009,0,0,0,0,0,0,0.0038,0.0034,-0.0,-0.0002,0.0026,0.0012,0.001,0.0002,0.0006,0.0008,0.0004,0.0006,0.0011,0.0012,0.0013,0.002,0.0021,0.0021,0.0021,0.001,0.0009,0.0009,0,0,0,0,0,0,0.0038,0.0034,0.0,0.0016,0.0012,0.001,0.0001,0.0001,0.0001,0.0004,0.0007,0.0005,0.0012,0.0013,0.0013,0.002,0.0021,0.0021,0.001,0.0009,0.0009,0.0013,0,0,0,0,0,0,0.004,0.0035,0.0031,0.0016,0.0011,-0.001,-0.0,-0.0,-0.0003,-0.0,0.0005,0.0008,0.0013,0.0013,0.0013,0.0019,0.0021,0.001,0.001,0.0009,0.0013,0.0013,0.0013,0,0,0,0,0,0.0041,0.003,0.0031,0.0027,0.0005,-0.0011,-0.0013,-0.001,-0.0004,-0.0006,-0.0001,0.0008,0.0011,0.0012,0.0012,0.0019,0.001,0.001,0.0009,0.0014,0.0013,0.0013,0,0,0,0,0,0,0.0048,0.003,0.0031,0.0015,0.0006,-0.0008,-0.0011,-0.0011,-0.0012,-0.0006,0.0001,0.0003,0.0006,0.0007,0.0008,0.0014,0.0014,0.0013,0.0017,0.0017,0.0017,0.0034,0.002,0,0,0,0,0,0.0047,0.0035,0.0021,0.0009,0.0005,-0.0003,-0.0008,-0.0008,-0.0012,-0.0011,-0.0008,-0.0003,0.0,0.0005,0.0004,0.0004,0.0038,0.0009,0.0009,0.0009,0.0021,0.0064,0.007,0.0008,0.0008,0.0008,0,0,0.0046,0.0036,0.0029,0.0011,0.0004,-0.0004,-0.0003,-0.0013,-0.0013,-0.001,-0.0007,-0.0007,-0.0002,0.0001,0.0003,0.0006,0.0048,0.0008,0.0008,0.0021,0.0064,0.0071,0.0076,0.0008,0.0008,0.0008,0,0,0.004,0.003,0.002,0.0012,0.0002,-0.0004,-0.0006,-0.0018,-0.0015,-0.002,-0.0013,-0.0004,-0.001,0.0005,0.0009,0.0007,0.0042,0.0001,0.002,0.006,0.0067,0.0072,0.0145,0.0158,0.0006,0.0006,0.0006,0,0.0043,0.0029,0.0016,0.0007,0.0004,-0.0003,-0.0008,-0.0012,-0.002,-0.0013,-0.0016,-0.0005,-0.0003,0.0018,0.0018,0.001,0.0047,0.002,0.0063,0.0069,0.0075,0.0148,0.0161,0.0006,0.0006,0.0006,0.0006,0,0.0032,0.0023,0.0017,0.0007,-0.0001,-0.0008,-0.0014,-0.0015,-0.0013,-0.001,0.0005,0.0007,0.0023,0.002,0.0018,0.0056,0.0076,0.0055,0.0067,0.0081,0.0158,0.0172,0.0006,0.0006,0.0006,0.0006,0,0,0.0034,0.0014,0.0014,0.0015,-0.0,-0.0005,-0.0006,-0.0002,0.0014,0.0009,0.0037,0.0037,0.0048,0.0054,0.0056,0.0089,0.0164,0.009,0.0092,0.0172,0.0285,0.0417,0.0445,0.0149,0.015,0.0152,0.033,0,0.0035,0.0025,0.0012,0.0009,0.0006,0.0,0.0005,0.0009,0.0017,0.0042,0.0057,0.008,0.0058,0.0075,0.0101,0.0145,0.0197,0.012,0.0252,0.0257,0.0379,0.0464,0.0382,0.0544,0.0344,0.0346,0.0348,0,0.0031,0.0028,0.0025,0.0023,0.0022,0.0022,0.0039,0.004,0.0069,0.0079,0.0103,0.0117,0.0168,0.0143,0.0244,0.0195,0.0247,0.0281,0.0288,0.0422,0.0415,0.0492,0.0577,0.0371,0.0369,0.0368,0.0366,0,0.005,0.0038,0.0041,0.0038,0.0034,0.0041,0.0043,0.006,0.0084,0.0115,0.0162,0.0186,0.0258,0.0282,0.0369,0.0304,0.0506,0.0421,0.0596,0.0607,0.0572,0.0578,0.051,0.051,0.0509,0.0509,0.0508,0,0.0057,0.006,0.0054,0.0058,0.0078,0.0062,0.0092,0.0098,0.0136,0.0209,0.0196,0.0294,0.03,0.0413,0.0423,0.0602,0.056,0.0644,0.0674,0.0575,0.0579,0.0439,0.0428,0.0516,0.0514,0.0513,0.0512,0,0.008,0.0069,0.0079,0.0083,0.0088,0.0105,0.0132,0.0166,0.0195,0.0298,0.0324,0.042,0.0586,0.0628,0.0734,0.0742,0.0837,0.091,0.0825,0.0843,0.0885,0.0871,0.1093,0.1099,0.1105,0.1109,0.1113,0,0.009,0.0098,0.011,0.0131,0.0137,0.0158,0.0188,0.0197,0.025,0.0407,0.0485,0.0672,0.0838,0.1057,0.1092,0.1185,0.1094,0.116,0.1016,0.0945,0.095,0.0928,0.0909,0.0964,0.0967,0.0968,0.097,0,0.0123,0.013,0.0143,0.0185,0.0216,0.0253,0.0302,0.0351,0.0416,0.0528,0.0742,0.0887,0.1135,0.1234,0.1371,0.1372,0.112,0.1209,0.1168,0.0849,0.0843,0.0842,0.0823,0.0987,0.0985,0.0984,0.0983,0.0982,0.0158,0.018,0.0205,0.0251,0.0291,0.0365,0.0417,0.0496,0.0613,0.0798,0.092,0.1124,0.1204,0.1408,0.1395,0.135,0.1409,0.1277,0.1261,0.1246,0.1219,0.1225,0.1437,0.1437,0.1438,0.1439,0.1439,0,0.0207,0.0235,0.0275,0.0336,0.0404,0.0413,0.0512,0.0577,0.0744,0.0918,0.1103,0.1148,0.1284,0.1321,0.1311,0.1334,0.1183,0.1243,0.1014,0.1006,0.0996,0.0942,0.1094,0.1092,0.109,0.1088,0,0,0.0236,0.0285,0.0308,0.0431,0.0487,0.0586,0.0653,0.0754,0.0865,0.102,0.1126,0.1309,0.1374,0.1241,0.1226,0.1165,0.1049,0.1109,0.1406,0.1135,0.1122,0.1065,0.0985,0,0,0,0,0]},{"header":{"parameterUnit":"m.s-1","parameterCategory":2,"la1":30.2991,"la2":30.254,"lo1":-89.0895,"lo2":-89.0444,"dy":0.0017,"dx":0.0017,"nx":28,"ny":28,"refTime":"2024-05-12T03:00:00:Z","depth":"2","parameterNumber":3,"parameterNumberName":"V-component_of_CURRENTS"},"data":[0,0,0,0,0,0,0,0,0,0,0,0,0,0,0,0,0,0,0,0,0,0,0,0,0,0,0,0,0,0,0,0,0,0,0,0,0,0,0,0,0,0,0,0,0,0,0,0,0,0,0,0,0,0,0,0,0,0,-0.0023,-0.0023,0,-0.0023,-0.0023,-0.0023,-0.0015,-0.0015,-0.0015,-0.0015,0.0008,0.0008,0.0009,0,0,0,0,0,0,0,0,0,0,0,0,0,-0.0006,-0.0006,-0.0023,-0.0023,-0.0023,-0.0023,-0.0023,-0.0023,-0.0015,-0.0015,-0.0015,-0.0015,0.0008,0.0008,0.0009,0,0,0,0,0,0,0,0,0,0,0,0,0,-0.001,-0.0006,-0.0023,-0.0019,-0.0019,-0.0023,-0.0023,-0.0023,-0.0015,-0.0015,-0.0015,-0.0014,0.0008,0.0008,0.0009,0.0007,0,0,0.0011,0.0011,0,0,0,0,0,0,0,0,-0.001,-0.0011,-0.002,-0.002,-0.0019,-0.0019,-0.0008,-0.0012,-0.0015,-0.0017,-0.0015,-0.0014,0.0001,0.0002,0.0001,0.0008,0.0009,0.0011,0.0011,0.0012,0.0012,0,0,0,0,0,0,0,-0.001,-0.0011,-0.0023,-0.002,-0.002,-0.0013,-0.0014,-0.0009,-0.0009,-0.0017,-0.0016,-0.0016,0.0001,0.0001,0.0002,0.0009,0.0011,0.0011,0.0012,0.0012,0.003,0.0031,0,0,0,0,0,0,-0.0011,-0.0011,-0.0023,-0.0023,-0.0014,-0.0014,-0.0015,-0.0019,-0.001,-0.0008,-0.0016,-0.0016,-0.0001,0.0001,0.0003,0.0009,0.0012,0.0012,0.0013,0.003,0.003,0.0031,0,0,0,0,0,0,-0.001,-0.0012,-0.0023,-0.0016,-0.0017,-0.0015,-0.002,-0.0019,-0.0019,-0.001,-0.0008,-0.0016,-0.0,0.0002,0.001,0.001,0.0012,0.0013,0.003,0.003,0.0031,0.0018,0,0,0,0,0,0,-0.001,-0.0012,-0.0016,-0.0017,-0.0018,-0.0026,-0.002,-0.0019,-0.0019,-0.0018,-0.0009,-0.0007,0.0,0.0009,0.001,0.0011,0.0014,0.003,0.003,0.003,0.0018,0.0018,0.0017,0,0,0,0,0,-0.0009,-0.0017,-0.0016,-0.0018,-0.0023,-0.0026,-0.0026,-0.0023,-0.0019,-0.0021,-0.0012,-0.0007,0.0011,0.0009,0.0011,0.0012,0.003,0.003,0.003,0.0018,0.0018,0.0017,0,0,0,0,0,0,-0.0012,-0.0017,-0.0016,-0.0025,-0.0026,-0.0025,-0.0027,-0.0024,-0.0019,-0.0017,-0.0007,-0.0004,0.0002,0.001,0.0007,0.0019,0.0022,0.0023,0.0012,0.0012,0.0011,0.0013,0.0014,0,0,0,0,0,-0.0015,-0.0022,-0.0023,-0.0031,-0.0031,-0.0029,-0.0029,-0.0027,-0.0023,-0.0021,-0.0014,-0.0004,0.0004,0.001,0.0015,0.0022,0.0038,0.0025,0.0024,0.0024,0.0027,0.005,0.0052,0.0031,0.0031,0.0031,0,0,-0.0019,-0.0022,-0.0027,-0.0032,-0.0031,-0.0034,-0.0029,-0.0031,-0.0031,-0.0019,-0.0016,-0.0009,0.0004,0.001,0.0014,0.0018,0.0038,0.0024,0.0023,0.0027,0.0051,0.0053,0.0055,0.0032,0.0032,0.0031,0,0,-0.0029,-0.0032,-0.004,-0.004,-0.0041,-0.0039,-0.0039,-0.0038,-0.0036,-0.0033,-0.0023,-0.0014,-0.0004,0.0006,0.0013,0.0014,0.0032,0.0016,0.0018,0.004,0.0042,0.0044,0.0067,0.0071,0.0019,0.0019,0.0019,0,-0.0031,-0.0043,-0.0043,-0.0047,-0.0048,-0.0041,-0.0046,-0.0043,-0.0039,-0.0034,-0.0033,-0.0014,-0.0006,0.001,0.001,0.0013,0.003,0.0018,0.004,0.0042,0.0044,0.0067,0.0072,0.0018,0.0019,0.0019,0.0019,0,-0.0046,-0.0054,-0.0058,-0.0061,-0.006,-0.0065,-0.0059,-0.0056,-0.0051,-0.0045,-0.0033,-0.0021,-0.0005,-0.0004,0.0004,0.0023,0.0032,0.0033,0.0041,0.0046,0.007,0.0075,0.0018,0.0018,0.0018,0.0018,0,0,-0.0054,-0.0066,-0.0067,-0.0072,-0.0068,-0.0071,-0.0066,-0.006,-0.0052,-0.0047,-0.0033,-0.0023,-0.0011,-0.0002,0.001,0.0028,0.0056,0.0039,0.004,0.0061,0.011,0.0118,0.0125,0.0063,0.0064,0.0064,0.0121,0,-0.0064,-0.008,-0.008,-0.009,-0.0096,-0.0085,-0.008,-0.0071,-0.0059,-0.0043,-0.0027,-0.0008,-0.0011,0.0005,0.0019,0.0052,0.0069,0.0041,0.0104,0.0106,0.0111,0.0131,0.0065,0.0111,0.0126,0.0127,0.0128,0,-0.0076,-0.0085,-0.01,-0.0104,-0.0104,-0.0105,-0.0091,-0.0086,-0.0058,-0.0044,-0.0023,-0.0002,0.003,0.0026,0.0078,0.0063,0.0085,0.0104,0.0107,0.0123,0.0123,0.0109,0.012,0.0136,0.0136,0.0135,0.0135,0,-0.0083,-0.0098,-0.0112,-0.0114,-0.0115,-0.0114,-0.0109,-0.0086,-0.0062,-0.0036,0.0004,0.0019,0.0068,0.0078,0.0124,0.0106,0.0185,0.0165,0.0189,0.019,0.0151,0.0148,0.0197,0.0197,0.0196,0.0196,0.0196,0,-0.0094,-0.0104,-0.0118,-0.0124,-0.0131,-0.0124,-0.0115,-0.0102,-0.0057,0.001,0.001,0.0087,0.0089,0.014,0.014,0.0193,0.0201,0.0198,0.0208,0.0145,0.0141,0.0174,0.0171,0.0198,0.0198,0.0198,0.0197,0,-0.0098,-0.0111,-0.0125,-0.0133,-0.0136,-0.0138,-0.0109,-0.0083,-0.0041,0.0055,0.008,0.0157,0.023,0.0224,0.0266,0.0247,0.0267,0.028,0.0208,0.0208,0.0248,0.0243,0.0304,0.0305,0.0305,0.0306,0.0306,0,-0.0102,-0.0113,-0.013,-0.0131,-0.0136,-0.0134,-0.0115,-0.0083,-0.0019,0.0129,0.0204,0.0289,0.0392,0.0424,0.0354,0.0329,0.0335,0.0272,0.0218,0.0256,0.0261,0.0255,0.0249,0.0161,0.016,0.016,0.0159,0,-0.0104,-0.0112,-0.0121,-0.0119,-0.0112,-0.0092,-0.0043,0.002,0.012,0.0235,0.0432,0.052,0.0526,0.0484,0.0406,0.0367,0.0257,0.0261,0.0332,0.0145,0.0127,0.0129,0.0128,0.0154,0.0154,0.0155,0.0155,0.0155,-0.0098,-0.0101,-0.0104,-0.0097,-0.0078,-0.0003,0.0063,0.0161,0.0306,0.053,0.0591,0.074,0.0609,0.0525,0.0393,0.0237,0.0273,0.0215,0.0215,0.0216,0.0191,0.0174,0.0206,0.0206,0.0207,0.0208,0.0208,0,-0.0087,-0.0078,-0.0072,-0.0039,0.0017,0.0021,0.0154,0.0257,0.0478,0.065,0.082,0.0754,0.0669,0.0529,0.0276,0.0147,0.0093,0.0111,0.0055,0.0061,0.0067,0.0031,0.0006,0.0005,0.0005,0.0004,0,0,-0.0078,-0.0065,-0.0056,0.0046,0.0096,0.0217,0.0321,0.0481,0.0629,0.082,0.0924,0.0972,0.0777,0.0563,0.0325,0.0176,0.0159,0.0139,0.0311,0.0275,0.0283,0.0128,0.0082,0,0,0,0,0]}],[{"header":{"parameterUnit":"m.s-1","parameterCategory":2,"la1":30.2991,"la2":30.254,"lo1":-89.0895,"lo2":-89.0444,"dy":0.0017,"dx":0.0017,"nx":28,"ny":28,"refTime":"2024-05-12T03:00:00:Z","depth":"4","parameterNumber":2,"parameterNumberName":"U-component_of_CURRENTS"},"data":[0,0,0,0,0,0,0,0,0,0,0,0,0,0,0,0,0,0,0,0,0,0,0,0,0,0,0,0,0,0,0,0,0,0,0,0,0,0,0,0,0,0,0,0,0,0,0,0,0,0,0,0,0,0,0,0,0,0,0.0024,0.0024,0,0.0016,0.0016,0.0016,0.0027,0.0028,0.0028,0.0029,0.0041,0.004,0.004,0,0,0,0,0,0,0,0,0,0,0,0,0,0.004,0.004,0.0024,0.0024,0.0024,0.0016,0.0016,0.0016,0.0027,0.0028,0.0028,0.0029,0.0041,0.004,0.004,0,0,0,0,0,0,0,0,0,0,0,0,0,0.0033,0.004,0.0024,0.0029,0.0029,0.0016,0.0016,0.0016,0.0027,0.0028,0.0028,0.0029,0.0041,0.0041,0.004,0.0027,0,0,0.004,0.004,0,0,0,0,0,0,0,0,0.0033,0.0032,0.0028,0.0029,0.0029,0.0024,0.0026,0.0021,0.0027,0.0028,0.0029,0.0029,0.0036,0.0037,0.0033,0.0027,0.0028,0.004,0.004,0.004,0.004,0,0,0,0,0,0,0,0.0034,0.0032,0.0021,0.0028,0.0029,0.0028,0.0028,0.0025,0.0029,0.0028,0.0029,0.0028,0.0037,0.0033,0.0034,0.0028,0.004,0.004,0.004,0.004,0.0028,0.0028,0,0,0,0,0,0,0.0035,0.0033,0.0021,0.0021,0.0033,0.0028,0.0027,0.0024,0.0028,0.003,0.0027,0.0028,0.0033,0.0034,0.0034,0.0034,0.004,0.004,0.004,0.0029,0.0028,0.0028,0,0,0,0,0,0,0.0035,0.0034,0.0021,0.0027,0.0025,0.0027,0.0023,0.0024,0.0024,0.0028,0.003,0.0028,0.0034,0.0034,0.0032,0.0034,0.004,0.004,0.0029,0.0028,0.0028,0.0023,0,0,0,0,0,0,0.0035,0.0034,0.0033,0.0027,0.0025,0.0016,0.0023,0.0023,0.0023,0.0024,0.0028,0.003,0.0034,0.0032,0.0032,0.0034,0.004,0.0029,0.0029,0.0028,0.0024,0.0023,0.0022,0,0,0,0,0,0.0036,0.0032,0.0033,0.0032,0.0024,0.0016,0.0015,0.0018,0.0022,0.0021,0.0022,0.003,0.0029,0.0031,0.0031,0.0033,0.0029,0.0029,0.0028,0.0024,0.0023,0.0022,0,0,0,0,0,0,0.004,0.0033,0.0034,0.0029,0.0024,0.0018,0.0018,0.0017,0.0016,0.0019,0.0024,0.0025,0.0023,0.0026,0.0028,0.0028,0.0032,0.0031,0.0029,0.0028,0.0027,0.0036,0.0039,0,0,0,0,0,0.004,0.0036,0.0029,0.0026,0.0024,0.002,0.0018,0.0017,0.0015,0.0015,0.0016,0.0019,0.0019,0.0022,0.002,0.0019,0.0051,0.0021,0.002,0.0019,0.0026,0.0068,0.0073,0.0026,0.0026,0.0026,0,0,0.004,0.0037,0.0035,0.0027,0.0024,0.0018,0.002,0.0015,0.0012,0.0016,0.0012,0.0012,0.0016,0.0014,0.0015,0.002,0.0052,0.0018,0.0018,0.0026,0.0068,0.0073,0.0077,0.0026,0.0026,0.0026,0,0,0.004,0.0036,0.0034,0.0027,0.0022,0.0017,0.0016,0.0008,0.0008,-0.0001,0.0004,0.0009,0.0002,0.0012,0.0014,0.0008,0.0042,0.0003,0.0012,0.0052,0.0057,0.0061,0.0124,0.0134,0.0008,0.0008,0.0008,0,0.0042,0.0036,0.0032,0.0026,0.002,0.0017,0.001,0.0006,-0.0001,0.0001,-0.0002,0.0002,0.0004,0.0015,0.0012,0.0008,0.0043,0.0016,0.0053,0.0058,0.0062,0.0125,0.0137,0.0007,0.0007,0.0007,0.0007,0,0.004,0.0032,0.0029,0.0021,0.0014,0.0006,-0.0001,-0.0005,-0.0008,-0.0007,-0.0002,0.0002,0.001,0.0008,0.0006,0.0036,0.0055,0.0045,0.0059,0.0067,0.0133,0.0144,0.0007,0.0007,0.0007,0.0007,0,0,0.005,0.0031,0.0031,0.0023,0.0009,0.0002,-0.0004,-0.0008,-0.0002,-0.0006,0.001,0.0005,0.0016,0.002,0.0025,0.0056,0.012,0.0064,0.0066,0.0133,0.0232,0.0217,0.0229,0.0116,0.0117,0.0119,0.0271,0,0.005,0.0037,0.0027,0.0013,0.0004,-0.0006,-0.001,-0.0013,-0.001,0.0006,0.002,0.0035,0.0018,0.0032,0.0057,0.0103,0.0148,0.0081,0.0208,0.0212,0.0204,0.0241,0.0124,0.028,0.0282,0.0284,0.0286,0,0.0052,0.0042,0.0028,0.0008,0.0004,-0.0005,-0.0007,-0.0013,0.0007,0.0016,0.0036,0.0052,0.0097,0.0082,0.0175,0.0134,0.0184,0.0221,0.0227,0.0224,0.0219,0.0265,0.0307,0.0306,0.0304,0.0303,0.0301,0,0.0061,0.0041,0.0029,0.0021,0.0002,-0.0004,-0.0012,-0.0007,0.0008,0.0035,0.0074,0.01,0.016,0.0194,0.0269,0.0227,0.0392,0.0344,0.0385,0.0386,0.0356,0.035,0.0423,0.0422,0.0422,0.0422,0.0421,0,0.0062,0.0052,0.0033,0.0026,0.0019,0.0001,0.0004,0.0003,0.0034,0.0088,0.0088,0.0165,0.0194,0.0287,0.0309,0.0402,0.0431,0.0405,0.0424,0.0352,0.0343,0.0366,0.0358,0.0427,0.0426,0.0425,0.0424,0,0.007,0.0056,0.0043,0.0025,0.0021,0.0015,0.0019,0.0036,0.0062,0.0144,0.0168,0.0252,0.0367,0.041,0.0512,0.0488,0.055,0.0581,0.0544,0.0555,0.0506,0.0495,0.0619,0.062,0.062,0.0621,0.0621,0,0.0071,0.0065,0.0049,0.0049,0.004,0.0033,0.004,0.0048,0.0088,0.0217,0.0281,0.0411,0.0468,0.0615,0.0624,0.0673,0.0658,0.0678,0.0535,0.052,0.0526,0.0514,0.0503,0.0622,0.0622,0.0622,0.0623,0,0.0076,0.0072,0.0064,0.0066,0.0069,0.0078,0.01,0.0134,0.0192,0.0236,0.0401,0.0466,0.0609,0.065,0.0709,0.0728,0.0637,0.0683,0.0679,0.0545,0.0526,0.0528,0.0517,0.0625,0.0625,0.0624,0.0624,0,0.0084,0.0083,0.0078,0.0081,0.0092,0.0127,0.0127,0.0202,0.0244,0.0382,0.0456,0.0579,0.0659,0.0688,0.0742,0.0754,0.0707,0.0643,0.064,0.0638,0.0561,0.0533,0.0672,0,0,0,0,0,0.009,0.0092,0.0096,0.01,0.0118,0.014,0.0177,0.0189,0.0264,0.0386,0.0415,0.0544,0.0632,0.0679,0.0689,0.0703,0.0682,0.0706,0.0599,0.0637,0.0635,0.0534,0,0,0,0,0,0,0.0093,0.0096,0.0097,0.0123,0.0147,0.0179,0.0215,0.0266,0.0322,0.0405,0.0461,0.0513,0.0599,0.0649,0.0692,0.0697,0.0614,0.076,0.0758,0.0639,0.0636,0.0634,0.053,0,0,0,0,0]},{"header":{"parameterUnit":"m.s-1","parameterCategory":2,"la1":30.2991,"la2":30.254,"lo1":-89.0895,"lo2":-89.0444,"dy":0.0017,"dx":0.0017,"nx":28,"ny":28,"refTime":"2024-05-12T03:00:00:Z","depth":"4","parameterNumber":3,"parameterNumberName":"V-component_of_CURRENTS"},"data":[0,0,0,0,0,0,0,0,0,0,0,0,0,0,0,0,0,0,0,0,0,0,0,0,0,0,0,0,0,0,0,0,0,0,0,0,0,0,0,0,0,0,0,0,0,0,0,0,0,0,0,0,0,0,0,0,0,0,-0.0227,-0.0227,0,-0.0229,-0.0229,-0.0229,-0.0214,-0.0213,-0.0213,-0.0213,-0.019,-0.019,-0.0189,0,0,0,0,0,0,0,0,0,0,0,0,0,-0.0199,-0.0199,-0.0227,-0.0227,-0.0227,-0.0229,-0.0229,-0.0229,-0.0214,-0.0213,-0.0213,-0.0212,-0.019,-0.019,-0.0189,0,0,0,0,0,0,0,0,0,0,0,0,0,-0.0207,-0.0199,-0.0227,-0.022,-0.0219,-0.0229,-0.0229,-0.0229,-0.0214,-0.0213,-0.0213,-0.0212,-0.019,-0.019,-0.0189,-0.02,0,0,-0.0188,-0.0188,0,0,0,0,0,0,0,0,-0.0206,-0.0208,-0.0221,-0.022,-0.022,-0.0221,-0.0211,-0.0218,-0.0214,-0.0216,-0.0213,-0.0212,-0.0199,-0.0197,-0.0199,-0.0199,-0.0198,-0.0188,-0.0188,-0.0188,-0.0188,0,0,0,0,0,0,0,-0.0206,-0.0208,-0.0228,-0.0221,-0.022,-0.0213,-0.0213,-0.0212,-0.021,-0.0215,-0.0214,-0.0215,-0.0198,-0.02,-0.0199,-0.0197,-0.0188,-0.0188,-0.0188,-0.0188,-0.0161,-0.0161,0,0,0,0,0,0,-0.0207,-0.0207,-0.0228,-0.0228,-0.0212,-0.0214,-0.0215,-0.0221,-0.021,-0.0209,-0.0216,-0.0215,-0.0201,-0.0199,-0.0198,-0.0179,-0.0188,-0.0188,-0.0187,-0.0162,-0.0161,-0.0161,0,0,0,0,0,0,-0.0207,-0.021,-0.0227,-0.0217,-0.0219,-0.0215,-0.0222,-0.0221,-0.0222,-0.0211,-0.0208,-0.0217,-0.02,-0.0198,-0.019,-0.0179,-0.0188,-0.0187,-0.0163,-0.0162,-0.0161,-0.0161,0,0,0,0,0,0,-0.0206,-0.0209,-0.0216,-0.0218,-0.022,-0.0235,-0.0223,-0.0222,-0.0224,-0.0222,-0.0212,-0.0209,-0.0199,-0.019,-0.0189,-0.0179,-0.0187,-0.0163,-0.0162,-0.0161,-0.0162,-0.0161,-0.0159,0,0,0,0,0,-0.0205,-0.022,-0.0217,-0.0219,-0.0229,-0.0235,-0.0236,-0.023,-0.0224,-0.0228,-0.0214,-0.0209,-0.0183,-0.019,-0.0189,-0.0178,-0.0164,-0.0163,-0.0161,-0.0162,-0.0161,-0.0159,0,0,0,0,0,0,-0.0214,-0.022,-0.0216,-0.0233,-0.0233,-0.0233,-0.0239,-0.0234,-0.0228,-0.0224,-0.021,-0.0207,-0.0193,-0.0188,-0.0196,-0.0166,-0.017,-0.0169,-0.0171,-0.0169,-0.0168,-0.0164,-0.0187,0,0,0,0,0,-0.0219,-0.0231,-0.0231,-0.0244,-0.0245,-0.0242,-0.0244,-0.024,-0.0235,-0.0232,-0.0222,-0.0206,-0.0189,-0.0182,-0.0171,-0.0163,-0.0152,-0.0152,-0.0151,-0.015,-0.0145,-0.0117,-0.0113,-0.0157,-0.0157,-0.0157,0,0,-0.0227,-0.0232,-0.0239,-0.0246,-0.0247,-0.0247,-0.0242,-0.0248,-0.024,-0.0231,-0.0219,-0.0206,-0.0186,-0.017,-0.0163,-0.0164,-0.0133,-0.0148,-0.0148,-0.0143,-0.0115,-0.0111,-0.0107,-0.0156,-0.0157,-0.0157,0,0,-0.0248,-0.0252,-0.0265,-0.0264,-0.0265,-0.0259,-0.026,-0.0258,-0.0249,-0.0241,-0.0222,-0.0201,-0.0189,-0.0162,-0.0148,-0.0136,-0.0128,-0.0134,-0.0124,-0.0098,-0.0094,-0.009,-0.0079,-0.0074,-0.0132,-0.0132,-0.0132,0,-0.0255,-0.0268,-0.027,-0.0276,-0.027,-0.0263,-0.0264,-0.0256,-0.0248,-0.0233,-0.0237,-0.0192,-0.018,-0.0139,-0.0133,-0.0132,-0.0123,-0.0133,-0.0096,-0.0092,-0.0089,-0.0078,-0.0072,-0.0132,-0.0132,-0.0132,-0.0132,0,-0.0279,-0.0284,-0.0292,-0.029,-0.0286,-0.0289,-0.0272,-0.0261,-0.0249,-0.0233,-0.02,-0.0182,-0.015,-0.0142,-0.0135,-0.0097,-0.0102,-0.01,-0.0101,-0.0084,-0.0074,-0.0068,-0.0132,-0.0132,-0.0132,-0.0132,0,0,-0.0308,-0.0308,-0.031,-0.03,-0.029,-0.0286,-0.0268,-0.0243,-0.0217,-0.0208,-0.0173,-0.0144,-0.0131,-0.0113,-0.0097,-0.0076,-0.0048,-0.008,-0.0078,-0.0071,-0.0001,-0.0058,-0.0058,-0.0042,-0.0041,-0.004,-0.0007,0,-0.0322,-0.033,-0.0325,-0.0316,-0.031,-0.0287,-0.0263,-0.0236,-0.0211,-0.0177,-0.0147,-0.0113,-0.0119,-0.0099,-0.0079,-0.0051,-0.0033,-0.0058,-0.0016,-0.0014,-0.0069,-0.0053,-0.0036,-0.0003,-0.0002,-0.0001,-0.0,0,-0.0342,-0.034,-0.034,-0.0306,-0.0301,-0.0294,-0.0242,-0.0221,-0.0169,-0.0146,-0.0112,-0.0089,-0.0048,-0.0059,-0.0009,-0.0027,-0.0014,-0.0,0.0002,-0.0047,-0.0061,-0.0021,0.0009,0.0009,0.0008,0.0007,0.0007,0,-0.0349,-0.0344,-0.0341,-0.0334,-0.0302,-0.0288,-0.0265,-0.0214,-0.018,-0.0127,-0.0097,-0.0054,-0.0026,-0.0001,0.0016,0.001,0.006,0.006,0.0021,0.0017,0.0058,0.0054,0.0096,0.0096,0.0096,0.0096,0.0096,0,-0.0353,-0.035,-0.0346,-0.0341,-0.032,-0.0293,-0.0256,-0.0223,-0.0165,-0.0117,-0.0086,-0.0046,-0.001,0.0018,0.0029,0.0032,0.0071,0.0025,0.0025,0.0056,0.0051,0.0061,0.0057,0.0097,0.0097,0.0096,0.0096,0,-0.0354,-0.0357,-0.035,-0.033,-0.0325,-0.0309,-0.0261,-0.0225,-0.0172,-0.011,-0.009,-0.0032,-0.0008,0.0012,0.0054,0.0046,0.006,0.0051,0.0074,0.0073,-0.0003,-0.0007,0.0021,0.0019,0.0018,0.0017,0.0016,0,-0.0352,-0.0353,-0.0351,-0.035,-0.0345,-0.032,-0.0296,-0.024,-0.0195,-0.0101,-0.0069,-0.0031,-0.0003,0.0028,0.0023,0.0028,0.0021,0.0034,0.0023,-0.0005,-0.0008,-0.0011,-0.0013,0.0013,0.0013,0.0013,0.0012,0,-0.0342,-0.0353,-0.0346,-0.035,-0.0342,-0.0317,-0.0278,-0.0239,-0.0157,-0.0121,-0.0023,0.0002,0.0014,0.0021,0.0011,0.0015,0.0032,0.0019,0.0023,0.0012,-0.0014,-0.0016,-0.0017,0.0007,0.0008,0.0009,0.0009,0,-0.0337,-0.0335,-0.0339,-0.0336,-0.0332,-0.0302,-0.0281,-0.0212,-0.0155,-0.0041,-0.0022,0.0014,0.0039,0.0012,0.0007,-0.0007,-0.0012,0.0004,0.0008,0.0013,-0.0016,-0.0051,-0.0037,0,0,0,0,0,-0.0327,-0.0323,-0.0321,-0.0309,-0.0306,-0.03,-0.0258,-0.0228,-0.0155,-0.0078,-0.0033,-0.0012,-0.0005,-0.0006,-0.0029,-0.0062,-0.005,-0.0094,-0.0038,-0.002,-0.0014,-0.0055,0,0,0,0,0,0,-0.0316,-0.0318,-0.0314,-0.0291,-0.0278,-0.026,-0.0234,-0.019,-0.0132,-0.0064,-0.0059,-0.0024,-0.0033,0.0011,-0.0029,-0.0037,-0.0006,-0.0089,-0.0089,-0.0023,-0.0018,-0.0013,-0.0053,0,0,0,0,0]}]]